Location: Balsareny
(41.8670°N, 1.8830°E)
Time: 23:24:59
(UTC+02:00)

Tianhe-1 - Visible Passes

Search period start: 23 June 2021 00:00
Search period end: 03 July 2021 00:00
Orbit: 375 x 386 km, 41.5° (Epoch: 23 June)

Date Brightness Start Highest point End Pass type
(mag) Time Alt. Az. Time Alt. Az. Time Alt. Az.
23 Jun 1.1 04:58:45 20° WSW 05:00:43 63° SSE 05:03:51 10° E visible
24 Jun 1.9 04:00:20 38° SE 04:00:20 38° SE 04:02:45 10° E visible
24 Jun 1.0 05:33:14 10° W 05:36:23 85° S 05:39:33 10° E visible
25 Jun 0.9 04:34:02 32° WSW 04:35:19 77° S 04:38:29 10° E visible
26 Jun 2.6 03:35:38 29° E 03:35:38 29° E 03:37:23 10° E visible
26 Jun 1.0 05:07:49 10° W 05:10:58 83° S 05:14:07 10° E visible
27 Jun 0.9 04:09:25 63° WSW 04:09:51 85° S 04:13:00 10° E visible
27 Jun 1.2 05:43:27 10° W 05:46:32 55° SSW 05:49:38 10° ESE visible
28 Jun 3.6 03:11:11 15° E 03:11:11 15° E 03:11:52 10° E visible
28 Jun 0.9 04:43:19 19° W 04:45:26 73° S 04:48:35 10° ESE visible
29 Jun 2.0 03:45:18 40° E 03:45:18 40° E 03:47:26 10° E visible
29 Jun 1.5 05:17:56 10° W 05:20:54 39° SSW 05:23:51 10° SE visible
30 Jun 1.0 04:19:47 57° SSW 04:19:48 57° SSW 04:22:53 10° ESE visible
01 Jul 2.0 04:54:53 26° SSW 04:55:07 26° SSW 04:57:49 10° SE visible
02 Jul 3.5 23:36:39 10° SW 23:37:06 13° SW 23:37:06 13° SW visible
